www.pogodaiklimat.ru

Погода и климат >> Архив погоды >> Парагвай >> Парагуари


ПОГОДА в Парагуари

  • Прогноз погоды в Парагуари
  • Монитор погоды в Парагуари

АРХИВ ПОГОДЫ в Парагуари

Время (UTC), дата Ветер
(напр.,м/с)
 
Видим.   Явления Облачность Т
(С)
Тd
(С)
f
(%)
Тe
(С)
Тes
(С)
Комфортность P
(гПа)
Po
(гПа)
Тmin
(С)
Tmax
(С)
R
(мм)
R24
(мм)
S
(см)
09 9.06 штиль 0 20 км ясно +17.4 +16.9 97 +17 +17 1016.6 1002.8
12 9.06 штиль 0 20 км 5/0 1500 м
[Ac und]
+17.8 +16.7 93 +18 +19 1017.7 1004.0 +17.0
15 9.06 штиль 0 20 км 4/0 1500 м
[Ac und]
+21.6 +15.9 70 +25 +34 комфорт 1018.5 1005.0
18 9.06 С 2 20 км 5/0 1500 м
[Ac und]
+24.4 +17.1 64 +28 +32 душно 1015.8 1002.3
21 9.06 штиль 0 20 км 5/0 1500 м
[Ac und]
+22.8 +16.8 69 +28 +28 душно 1014.4 1000.9
00 10.06 С 3 20 км 5/0 1500 м
[Ac und]
+22.6 +18.6 78 +28 +28 душно 1013.6 1000.1 +25.8
03 10.06 штиль 0 20 км ясно +21.8 +18.9 84 +27 +27 душно 1013.8 1000.3
06 10.06 штиль 0 20 км ясно +20.8 +18.1 85 +25 +25 комфорт 1014.5 1000.9
09 10.06 С 6 20 км ясно +19.8 +15.3 75 +22 +22 комфорт 1015.1 1001.5
12 10.06 С 5 20 км 10/0 1500 м
[Ac As]
+21.8 +13.8 60 +25 +25 комфорт 1016.4 1002.9 +17.8
15 10.06 С 4 20 км 8/0 1500 м
[Ac und]
+23.8 +13.6 53 +26 +29 жарко 1017.4 1003.9
18 10.06 С 3 20 км 8/0 1500 м
[Ac und]
+26.4 +11.9 40 +28 +30 жарко 1014.8 1001.4
21 10.06 С 4 20 км 8/0 1500 м
[Ac As]
+25.6 +12.8 45 +27 +27 жарко 1013.4 1000.0
00 11.06 С 2 20 км ясно +22.8 +16.4 67 +27 +27 душно 1013.0 999.6 +26.4
03 11.06 С 5 20 км ясно +21.4 +14.1 63 +24 +24 комфорт 1013.6 1000.0
06 11.06 С 4 20 км ясно +20.6 +14.6 68 +23 +23 комфорт 1014.1 1000.5
09 11.06 штиль 0 20 км 9/0 1500 м
[Ac und]
+19.8 +15.2 75 +22 +22 комфорт 1014.8 1001.2
12 11.06 штиль 0 20 км 9/0 1500 м
[Ac und]
+21.6 +15.7 69 +25 +26 комфорт 1015.2 1001.7 +18.8
15 11.06 штиль 0 20 км 8/0 1500 м
[Ac und]
+23.8 +14.2 55 +26 +32 жарко 1016.4 1002.9
18 11.06 штиль 0 20 км 8/0 1500 м
[Ac und]
+25.8 +14.6 50 +28 +34 жарко 1014.0 1000.6
21 11.06 штиль 0 20 км 8/0 1500 м
[Ac und]
+24.4 +15.4 57 +27 +27 жарко 1013.2 999.8
00 12.06 штиль 0 20 км ясно +22.6 +15.1 63 +26 +26 жарко 1013.5 1000.0 +26.8
03 12.06 С 5 20 км 4/0 1500 м
[Ac und]
+22.8 +14.8 61 +27 +27 душно 1012.9 1000.4
06 12.06 С 6 20 км 5/0 1500 м
[Ac und]
+21.8 +15.4 67 +25 +25 комфорт 1013.6 1000.1
09 12.06 С 3 20 км 5/0 1500 м
[Ac und]
+21.6 +14.0 62 +24 +24 комфорт 1013.8 1000.3
12 12.06 С 6 20 км 8/0 1500 м
[Ac und]
+23.8 +14.1 55 +26 +27 жарко 1015.5 1002.0 +21.6
15 12.06 С 2 20 км 5/0 1500 м
[Ac und]
+27.8 +16.7 51 +31 +37 душно 1014.7 1001.4
18 12.06 С 2 20 км 5/0 1500 м
[Ac und]
+31.4 +17.7 44 +36 +39 очень
душно
1011.6 998.5
21 12.06 С 5 20 км ясно +27.8 +16.8 51 +31 +31 душно 1009.9 996.7
00 13.06 С 6 20 км ясно +26.8 +19.3 63 +32 +32 очень
душно
1009.4 996.1 +31.4
03 13.06 С 3 20 км ясно +24.8 +18.6 68 +29 +29 душно 1010.1 996.8
06 13.06 С 4 20 км ясно +23.6 +17.7 70 +28 +28 душно 1010.8 997.4
09 13.06 С 3 20 км ясно +22.8 +16.8 69 +28 +28 душно 1011.6 998.2
12 13.06 С 4 20 км ясно +26.6 +16.0 52 +30 +31 душно 1013.5 1000.2 +22.8
15 13.06 С 3 20 км ясно +28.8 +17.9 52 +33 +41 очень
душно
1014.0 1000.8
18 13.06 С 4 20 км ясно +31.6 +16.6 41 +35 +39 очень
душно
1013.3 1000.2
21 13.06 штиль 0 20 км ясно +28.8 +20.1 59 +35 +35 очень
душно
1012.5 999.3
00 14.06 С 2 20 км ясно +27.6 +20.4 65 +34 +34 очень
душно
1011.7 998.5 +31.6
03 14.06 штиль 0 20 км ясно +24.8 +18.7 69 +30 +30 душно 1012.1 998.8
09 14.06 штиль 0 20 км ясно +21.6 +17.4 77 +26 +26 душно 1013.9 999.8
12 14.06 С 4 20 км 8/0 1500 м
[Ac und]
+25.6 +16.7 58 +29 +30 душно 1015.0 1001.6 +21.6
15 14.06 С 3 20 км 5/0 1500 м
[Ac und]
+28.2 +18.4 55 +33 +38 очень
душно
1015.8 1002.0
18 14.06 С 4 20 км 5/0 1500 м
[Ac und]
+31.8 +18.0 44 +36 +39 очень
душно
1013.2 1000.1
21 14.06 С 2 20 км 5/0 1500 м
[Ac und]
+29.4 +19.8 56 +35 +35 очень
душно
1012.3 999.1
00 15.06 штиль 0 20 км 8/0 1500 м
[Ac und]
+26.4 +19.5 66 +32 +32 очень
душно
1012.2 998.9 +31.8
03 15.06 штиль 0 20 км 8/0 1500 м
[Ac und]
+24.6 +18.8 70 +29 +29 душно 1012.9 999.6
06 15.06 штиль 0 20 км 8/0 1500 м
[Ac und]
+24.2 +19.0 73 +29 +29 душно 1013.5 1000.0
09 15.06 С 3 20 км ясно +22.8 +16.7 68 +27 +27 душно 1014.1 1000.6
12 15.06 С 4 20 км 5/0 1500 м
[Ac und]
+21.4 +16.7 75 +25 +26 комфорт 1014.6 1001.2 +22.8
15 15.06 С 4 20 км 8/0 1500 м
[Ac und]
+27.6 +16.9 52 +31 +34 душно 1015.1 1001.8
18 15.06 С 3 20 км 8/0 1500 м
[Ac und]
+29.8 +17.5 48 +34 +36 очень
душно
1012.8 999.7
21 15.06 штиль 0 20 км 8/0 1500 м
[Ac lent]
+28.4 +20.2 61 +35 +35 очень
душно
1011.9 998.7
00 16.06 В 2 20 км 4/0
[Ci]
+23.8 +17.7 69 +28 +28 душно 1013.5 1000.0 +30.0
03 16.06 В 2 20 км ясно +23.0 +18.2 74 +29 +29 очень
душно
1014.5 1001.0
06 16.06 штиль 0 20 км ясно +20.0 +16.7 81 +22 +22 комфорт 1013.6 1000.0

 

Местоположение метеостанции Парагуари (Парагвай): широта -25.63 долгота -57.13 высота над уровнем моря 116 м.

В архиве по умолчанию представлена погода в Парагуари за последнюю неделю. Архивные данные за месяц целиком и за предыдущие месяцы, начиная с января 2011 года, Вы можете получить, выбрав интересующий диапазон дат из раскрывающегося списка и нажав кнопку "Ввод!".


*Определитесь, кто Вы:
робот инопланетянин человек

Внимание! Время в таблицах - всемирное. Для получения местного времени необходимо прибавить поправку, которая равна -4 ч.

Смотрите также архив погоды в соседних городах и на ближайших метеорологических станциях:

Погода в Асунсьоне (Парагвай) (57 км)
Погода в Куйкуйо (Парагвай) (67 км)
Погода в Вильяррике (Парагвай) (71 км)
Погода в Коронель-Овьедо (Парагвай) (80 км)
Погода в Каасапе (Парагвай) (99 км)
Погода в Сан Хуан Батистута (Парагвай) (115 км)
Погода в Формосе (Аргентина) (127 км)
Погода в Сан Эстанислао (Парагвай) (130 км)
Погода в Сан-Педро (Парагвай) (175 км)
Погода в Пиларе (Парагвай) (180 км)

Пояснения к столбцам:

Ветер - указаны скорость ветра в м/с - средняя за 10 мин, порывы в срок и между сроками (в фигурных скобках) и направление, откуда дует ветер: С - северный, СВ - северо-восточный, В - восточный, ЮВ - юго-восточный, Ю - южный, ЮЗ - юго-западный, З - западный, СЗ - северо-западный.
Видимость - горизонтальная дальность видимости в метрах или километрах. При видимости от 1 до 10 км при отсутствии осадков обычно наблюдается дымка, при ухудшении видимости до 1 км и менее - туман. В сухую погоду видимость может ухудшаться дымом, пылью или мглою.
Явления - указаны атмосферные явления, наблюдавшиеся в срок или в последний час перед сроком; фигурными скобками обозначены явления, наблюдавшиеся между сроками (за 1-3 часа до срока); квадратными скобками обозначены град или гололедные отложения с указанием их диаметра в мм.
Облачность - указаны через наклонную черту общая и нижняя облачность в баллах и высота нижней границы облаков в метрах; квадратными скобками обозначены формы облаков: Ci - перистые, Cs - перисто-слоистые, Cc - перисто-кучевые, Ac - высококучевые, As - высокослоистые, Sc - слоисто-кучевые, Ns - слоисто-дождевые, Cu - кучевые, Cb - кучево-дождевые. Подробнее классификацию облаков см. в Атласе облаков (PDF).
T - Температура воздуха - температура, измеренная на высоте 2 м над землей.
Td - Температура точки росы - температура, при понижении до которой содержащийся в воздухе водяной пар достигнет насыщения.
f - Относительная влажность воздуха - влажноcть воздуха, измеренная на высоте 2 м над землей.
Te - Эффективная температура - температура, которую ощущает одетый по сезону человек в тени. Характеристика душности погоды. При расчете учитывается влияние влажности воздуха и скорости ветра на теплоощущения человека.
Tes - Эффективная температура на солнце - температура, которую ощущает человек, с поправкой на солнечный нагрев. Характеристика знойности погоды. Зависит от высоты солнца над горизонтом, облачности и скорости ветра. Ночью, в пасмурную погоду, а также при ветре 12 м/с и более поправка равна нулю.
P - Атмосферное давление - приведенное к уровню моря атмосферное давление.
Po - Атмосферное давление - измеренное на уровне метеостанции атмосферное давление.
Tmin - Минимальная температура - минимум температуры воздуха на высоте 2 м над землей.
Tmax - Максимальная температура - максимум температуры воздуха на высоте 2 м над землей.
R - Количество осадков - Количество выпавших осадков за период времени, мм. При наведении курсора мыши на число - период времени, за который выпало указанное количество осадков.
R24 - Количество осадков - Количество выпавших осадков за 24 часа, мм.
S - Снежный покров - Высота снежного покрова, см. При наведении курсора мыши на число - состояние снежного покрова и степень покрытия местности в баллах.